Weather History for KARA - February, 2014

Change the Weather History Date:

Friday, February 21, 2014

  Actual Average Record
Temperature  
Mean Temperature 57 °F 57 °F  
Max Temperature 67 °F 67 °F 80 °F (1985)
Min Temperature 47 °F 47 °F 29 °F (1978)
Degree Days  
Heating Degree Days 8 9  
Month to date heating degree days 258 223  
Since 1 July heating degree days 1464 1160  
Cooling Degree Days 0 1  
Month to date cooling degree days 15 17  
Year to date cooling degree days 15 29  
Growing Degree Days 6 (Base 50)    
Moisture  
Dew Point 36 °F    
Average Humidity 54    
Maximum Humidity 86    
Minimum Humidity 22    
Precipitation  
Precipitation 0.01 in 0.15 in 1.55 in (2008)
Month to date precipitation 4.37 3.12  
Year to date precipitation 6.72 8.34  
Sea Level Pressure  
Sea Level Pressure 30.10 in    
Wind  
Wind Speed 8 mph (NNE)    
Max Wind Speed 28 mph    
Max Gust Speed 35 mph    
Visibility 10 miles    
Events Rain , Thunderstorm    
T = Trace of Precipitation, MM = Missing Value Source: NWS Daily Summary

Daily Weather History Graph

Daily Weather History Graph

Search for Another Location

Airport or City:

Trip Planner

Search our weather history database for the weather conditions in past years. The results will help you decide how hot, cold, wet, or windy it might be!

Date:

Astronomy

Feb. 21, 2014 Rise Set
Actual Time 6:41 AM CST 6:00 PM CST
Civil Twilight 6:17 AM CST 6:25 PM CST
Nautical Twilight 5:49 AM CST 6:53 PM CST
Astronomical Twilight 5:21 AM CST 7:20 PM CST
Moon No Moon Rise 10:35 AM CST (2/21)
Length of Visible Light 12h 07m
Length of Day
11h 19m
Waning Gibbous, 60% of the Moon is Illuminated
Feb 21
Waning Gibbous
Feb 22
Last Quarter
Mar 1
New
Mar 8
First Quarter
Mar 16
Full

Hourly Weather History & Observations

Time (CST) Temp. Dew Point Humidity Pressure Visibility Wind Dir Wind Speed Gust Speed Precip Events Conditions
12:06 AM 64.9 °F 54.0 °F 68% 29.98 in 10.0 mi NNW 18.4 mph 29.9 mph 0.00 in Thunderstorm Thunderstorm
12:21 AM 63.0 °F 51.1 °F 65% 29.99 in 10.0 mi North 23.0 mph 33.4 mph 0.01 in Rain Light Rain
12:53 AM 61.0 °F 48.0 °F 62% 30.00 in 10.0 mi North 17.3 mph 25.3 mph 0.01 in   Overcast
1:53 AM 57.9 °F 48.0 °F 70% 30.03 in 10.0 mi North 17.3 mph - 0.00 in   Scattered Clouds
2:53 AM 55.9 °F 42.1 °F 60% 30.06 in 10.0 mi North 19.6 mph 26.5 mph 0.00 in   Clear
3:53 AM 53.1 °F 34.0 °F 48% 30.09 in 10.0 mi North 15.0 mph - 0.00 in   Clear
4:53 AM 52.0 °F 34.0 °F 50% 30.10 in 10.0 mi North 15.0 mph - N/A   Clear
5:53 AM 48.9 °F 35.1 °F 59% 30.12 in 10.0 mi NNE 9.2 mph - N/A   Clear
6:53 AM 46.9 °F 35.1 °F 63% 30.14 in 10.0 mi North 8.1 mph - N/A   Clear
7:53 AM 53.1 °F 37.9 °F 57% 30.15 in 10.0 mi NNE 6.9 mph - N/A   Clear
8:53 AM 55.9 °F 36.0 °F 47% 30.14 in 10.0 mi NE 11.5 mph - N/A   Clear
9:53 AM 59.0 °F 30.0 °F 33% 30.16 in 10.0 mi NE 12.7 mph - N/A   Clear
10:53 AM 62.1 °F 26.1 °F 25% 30.17 in 10.0 mi NE 16.1 mph - N/A   Clear
11:53 AM 64.0 °F 24.1 °F 22% 30.16 in 10.0 mi NE 13.8 mph - N/A   Clear
12:53 PM 64.9 °F 26.1 °F 23% 30.13 in 10.0 mi NNE 10.4 mph - N/A   Clear
1:26 PM 66.0 °F 26.1 °F 22% 30.11 in 1.8 mi NE 10.4 mph - N/A   Haze
1:40 PM 64.9 °F 25.0 °F 22% 30.10 in 10.0 mi Variable 5.8 mph - N/A   Clear
1:53 PM 64.9 °F 25.0 °F 22% 30.10 in 10.0 mi NNE 8.1 mph - N/A   Clear
2:53 PM 66.9 °F 27.0 °F 22% 30.09 in 10.0 mi NNE 9.2 mph - N/A   Clear
3:53 PM 66.0 °F 26.1 °F 22% 30.09 in 10.0 mi NNE 4.6 mph - N/A   Clear
4:53 PM 64.9 °F 27.0 °F 24% 30.09 in 10.0 mi Calm Calm - N/A   Clear
5:53 PM 60.1 °F 37.0 °F 42% 30.09 in 10.0 mi South 4.6 mph - N/A   Clear
6:53 PM 57.0 °F 39.0 °F 51% 30.09 in 10.0 mi Calm Calm - N/A   Clear
7:53 PM 55.9 °F 39.0 °F 53% 30.10 in 10.0 mi Calm Calm - N/A   Clear
8:53 PM 52.0 °F 43.0 °F 71% 30.11 in 10.0 mi Calm Calm - N/A   Clear
9:53 PM 48.9 °F 43.0 °F 80% 30.11 in 10.0 mi Calm Calm - N/A   Clear
10:53 PM 48.9 °F 44.1 °F 83% 30.12 in 10.0 mi NNW 3.5 mph - N/A   Clear
11:53 PM 48.9 °F 44.1 °F 83% 30.11 in 10.0 mi Calm Calm - N/A   Clear